Flag for Central African Republic Weather past 2 weeks in Bangui, Central African Republic

Now
72 °F

Light rain. More clouds than sun.


Feels Like: 67 °F
Forecast: 70 / 82 °F
Wind: 8 mph from North

Location: Bangui Airport

Current Time: Aug 2, 2014 at 10:26:48 AM

Latest Report: Aug 2, 2014 at 9:00 AM


Visibility: 5 mi

Pressure: 30.04 "Hg

Humidity: 94%

Dew point: 70 °F

Location of BanguiLocation

Historic Weather in Bangui — Graph

°F

Bangui temperature yesterday

Maximum temperature yesterday: 79 °F (at 9:00 AM)
Minimum temperature yesterday: 72 °F (at 1:00 PM)
Average temperature yesterday: 74 °F

Past Weeks' High & Low Weather Summary

 TemperatureHumidityPressure
High91 °F (Jul 28, 1:00 PM)100% (Jul 18, 8:00 PM)30.04 "Hg (Jul 18, 8:00 PM)
Low70 °F (Jul 25, 2:00 AM)55% (Jul 26, 2:00 PM)29.80 "Hg (Jul 28, 4:00 PM)
Average77 °F87%29.93 "Hg
* Reported Jul 18 9:00 AM — Aug 2 9:00 AM, Bangui, Weather by CustomWeather, © 2014

Note: Actual official high and low records may vary slightly from our data, if they occured in-between our weather recording intervals... More about our weather records

Advertising

Bangui weather history for previous 24 hours

 ConditionsComfort  
Time TempWeatherWind HumidityBarometerVisibility
9:00 AM
Aug 2
72 °FLight rain. More clouds than sun.8 mph94%30.04 "Hg5 mi
8:00 AM72 °FThunderstorms. More clouds than sun.2 mph100%30.01 "Hg4 mi
7:00 AM70 °FThunderstorms. More clouds than sun.3 mph100%30.01 "Hg4 mi
6:00 AM70 °FLight rain. More clouds than sun.2 mph100%29.98 "Hg4 mi
5:00 AM70 °FMostly cloudy.5 mph100%29.95 "Hg4 mi
4:00 AM70 °FClear.3 mph100%29.95 "Hg10 mi
3:00 AM70 °FClear.No wind100%29.92 "Hg10 mi
2:00 AM70 °FClear.No wind100%29.95 "Hg10 mi
1:00 AM70 °FClear.1 mph100%29.95 "Hg10 mi
12:00 AM70 °FClear.2 mph100%29.98 "Hg10 mi
11:00 PM
Aug 1
72 °FClear.No wind94%29.98 "Hg10 mi
10:00 PM72 °FClear.No wind94%29.95 "Hg10 mi
9:00 PM72 °FClear.2 mph94%29.95 "Hg10 mi
8:00 PM72 °FLow clouds.No wind100%29.92 "Hg4 mi
7:00 PM72 °FLow clouds.2 mph100%29.89 "Hg4 mi
6:00 PM72 °FLow clouds.2 mph94%29.86 "Hg4 mi
5:00 PM72 °FOvercast.2 mph100%29.89 "HgN/A
4:00 PM73 °FThunderstorms. Overcast.3 mph100%29.92 "Hg4 mi
3:00 PM73 °FThunderstorms. Overcast.1 mph94%29.92 "Hg4 mi
2:00 PM72 °FThunderstorms. Overcast.5 mph100%29.92 "Hg4 mi
1:00 PM72 °FThunderstorms. Passing clouds.3 mph94%29.95 "Hg4 mi
12:00 PM73 °FThunderstorms. Low clouds.7 mph94%29.95 "Hg4 mi
11:00 AM75 °FThunderstorms. Mostly cloudy.10 mph94%29.95 "Hg4 mi
10:00 AM79 °FPartly sunny.5 mph89%29.98 "Hg4 mi
Weather by CustomWeather, © 2014

See weather overviewHow to use our weather pages